| time (UTC) | temp C | wind direction | speed KPH | gust KPH | rain 1hr cm | rain 24hr cm | rain mn cm | humidity % | barometer mb |
| 20260906073109 | 17 | 38 | 3.2 | 11.3 | 0.00 | 1.27 | 0.00 | 88 | 1016.4 |
| 20260906071554 | 18 | 90 | 4.8 | 11.3 | 0.00 | 1.27 | 0.00 | 88 | 1016.5 |
| 20260906070059 | 18 | 53 | 4.8 | 11.3 | 0.00 | 1.27 | 0.00 | 88 | 1016.4 |
| 20260906064552 | 18 | 76 | 3.2 | 9.7 | 0.00 | 1.27 | 0.00 | 88 | 1016.4 |
| 20260906063052 | 18 | 79 | 3.2 | 9.7 | 0.00 | 1.27 | 0.00 | 88 | 1016.3 |
| 20260906061553 | 18 | 97 | 4.8 | 12.9 | 0.00 | 1.27 | 0.00 | 88 | 1016.4 |
| 20260906060100 | 19 | 70 | 4.8 | 17.7 | 0.00 | 1.27 | 0.00 | 88 | 1016.4 |
| 20260906054554 | 20 | 71 | 6.4 | 11.3 | 0.00 | 1.27 | 0.00 | 90 | 1016.3 |
| 20260906053059 | 20 | 48 | 3.2 | 9.7 | 0.00 | 1.27 | 0.00 | 91 | 1016.2 |
| 20260906051602 | 20 | 55 | 3.2 | 16.1 | 0.00 | 1.27 | 0.00 | 90 | 1016.2 |
| 20260906050105 | 20 | 53 | 3.2 | 9.7 | 0.00 | 1.27 | 0.00 | 91 | 1016.0 |
| 20260906044552 | 20 | 81 | 3.2 | 14.5 | 0.00 | 1.27 | 0.00 | 90 | 1015.7 |
| 20260906043102 | 21 | 85 | 6.4 | 16.1 | 0.00 | 1.27 | 0.00 | 91 | 1015.7 |
| 20260906041552 | 21 | 65 | 8.0 | 16.1 | 0.00 | 1.27 | 0.00 | 92 | 1015.5 |
| 20260906040055 | 22 | 73 | 4.8 | 14.5 | 0.00 | 1.27 | 0.00 | 92 | 1015.6 |
| 20260906034607 | 22 | 67 | 4.8 | 12.9 | 0.00 | 1.27 | 1.27 | 92 | 1015.7 |
| 20260906033056 | 22 | 71 | 6.4 | 16.1 | 0.00 | 1.27 | 1.27 | 92 | 1015.5 |
| 20260906031553 | 22 | 81 | 9.7 | 19.3 | 0.00 | 1.27 | 1.27 | 92 | 1015.4 |
| 20260906030051 | 22 | 84 | 9.7 | 17.7 | 0.00 | 1.27 | 1.27 | 92 | 1015.5 |
| 20260906024558 | 22 | 80 | 12.9 | 24.1 | 0.00 | 1.27 | 1.27 | 92 | 1015.5 |
| 20260906023051 | 22 | 86 | 9.7 | 19.3 | 0.00 | 1.27 | 1.27 | 92 | 1015.2 |
| 20260906021607 | 22 | 72 | 11.3 | 19.3 | 0.00 | 1.27 | 1.27 | 92 | 1015.2 |
| 20260906020105 | 23 | 80 | 14.5 | 20.9 | 0.00 | 1.27 | 1.27 | 92 | 1015.2 |
| 20260906014553 | 23 | 65 | 11.3 | 20.9 | 0.00 | 1.27 | 1.27 | 92 | 1015.2 |
| 20260906013102 | 23 | 88 | 11.3 | 19.3 | 0.00 | 1.27 | 1.27 | 92 | 1014.8 |
| 20260906011550 | 23 | 78 | 9.7 | 16.1 | 0.00 | 1.27 | 1.27 | 91 | 1014.6 |
| 20260906010058 | 23 | 103 | 6.4 | 14.5 | 0.00 | 1.27 | 1.27 | 91 | 1014.3 |
| 20260906004555 | 23 | 69 | 9.7 | 19.3 | 0.00 | 1.27 | 1.27 | 91 | 1014.4 |
| 20260906003054 | 24 | 90 | 12.9 | 22.5 | 0.00 | 1.27 | 1.27 | 91 | 1014.1 |
| 20260906001553 | 24 | 76 | 8.0 | 24.1 | 0.00 | 1.27 | 1.27 | 92 | 1013.6 |
| 20260906000053 | 24 | 0 | 0.0 | 3.2 | 0.00 | 1.27 | 1.27 | 93 | 1013.8 |
| 20260905234622 | 24 | 0 | 0.0 | 4.8 | 0.00 | 1.27 | 1.27 | 93 | 1013.7 |
| 20260905233051 | 24 | 0 | 3.2 | 6.4 | 0.00 | 1.27 | 1.27 | 92 | 1013.4 |
| 20260905231555 | 24 | 52 | 0.0 | 4.8 | 0.00 | 1.27 | 1.27 | 92 | 1013.5 |
| 20260905230049 | 23 | 146 | 1.6 | 4.8 | 0.00 | 1.27 | 1.27 | 91 | 1013.6 |
| 20260905224553 | 23 | 278 | 4.8 | 9.7 | 0.00 | 1.27 | 1.27 | 91 | 1014.3 |
| 20260905223052 | 23 | 232 | 1.6 | 8.0 | 0.00 | 1.27 | 1.27 | 91 | 1013.8 |
| 20260905221554 | 23 | 0 | 1.6 | 4.8 | 0.25 | 1.27 | 1.27 | 90 | 1013.3 |
| 20260905220105 | 23 | 0 | 1.6 | 8.0 | 1.27 | 1.27 | 1.27 | 88 | 1013.4 |
| 20260905214553 | 23 | 0 | 0.0 | 6.4 | 1.27 | 1.27 | 1.27 | 90 | 1013.3 |
| 20260905213049 | 23 | 173 | 6.4 | 11.3 | 1.27 | 1.27 | 1.27 | 88 | 1013.0 |
| 20260905211556 | 25 | 182 | 6.4 | 38.6 | 0.99 | 0.99 | 0.99 | 79 | 1013.1 |
| 20260905210058 | 30 | 28 | 8.0 | 12.9 | 0.00 | 0.00 | 0.00 | 73 | 1012.7 |
| 20260905204553 | 31 | 302 | 4.8 | 16.1 | 0.00 | 0.00 | 0.00 | 72 | 1012.8 |
| 20260905203108 | 31 | 281 | 4.8 | 14.5 | 0.00 | 0.00 | 0.00 | 72 | 1013.1 |
| 20260905201552 | 30 | 304 | 6.4 | 16.1 | 0.00 | 0.00 | 0.00 | 73 | 1013.4 |
| 20260905200059 | 30 | 307 | 8.0 | 17.7 | 0.00 | 0.00 | 0.00 | 71 | 1013.5 |
| 20260905194558 | 30 | 346 | 6.4 | 16.1 | 0.00 | 0.00 | 0.00 | 71 | 1013.5 |
| 20260905193051 | 30 | 328 | 3.2 | 17.7 | 0.00 | 0.00 | 0.00 | 70 | 1013.6 |
| 20260905191548 | 30 | 302 | 4.8 | 17.7 | 0.00 | 0.00 | 0.00 | 72 | 1013.9 |
| 20260905190048 | 30 | 311 | 8.0 | 16.1 | 0.00 | 0.00 | 0.00 | 69 | 1014.0 |
| 20260905184602 | 30 | 287 | 8.0 | 16.1 | 0.00 | 0.00 | 0.00 | 69 | 1014.2 |
| 20260905183052 | 30 | 277 | 9.7 | 20.9 | 0.00 | 0.00 | 0.00 | 71 | 1014.5 |
| 20260905181554 | 29 | 287 | 11.3 | 20.9 | 0.00 | 0.00 | 0.00 | 71 | 1014.6 |
| 20260905174556 | 28 | 244 | 9.7 | 27.4 | 0.00 | 0.00 | 0.00 | 71 | 1014.8 |
| 20260905173053 | 28 | 263 | 8.0 | 17.7 | 0.00 | 0.00 | 0.00 | 73 | 1014.6 |
| 20260905171607 | 28 | 269 | 8.0 | 19.3 | 0.00 | 0.00 | 0.00 | 72 | 1014.9 |
| 20260905170057 | 28 | 230 | 11.3 | 20.9 | 0.00 | 0.00 | 0.00 | 73 | 1015.0 |
| 20260905164556 | 27 | 292 | 9.7 | 19.3 | 0.00 | 0.00 | 0.00 | 77 | 1015.3 |
| 20260905163055 | 26 | 289 | 3.2 | 12.9 | 0.00 | 0.00 | 0.00 | 78 | 1015.7 |
| 20260905161547 | 26 | 100 | 4.8 | 9.7 | 0.00 | 0.00 | 0.00 | 83 | 1016.1 |
| 20260905160107 | 25 | 142 | 4.8 | 11.3 | 0.00 | 0.00 | 0.00 | 82 | 1015.9 |
| 20260905154615 | 25 | 13 | 8.0 | 14.5 | 0.00 | 0.00 | 0.00 | 79 | 1016.5 |
| 20260905153048 | 26 | 292 | 4.8 | 12.9 | 0.00 | 0.00 | 0.00 | 76 | 1015.8 |
| 20260905151548 | 26 | 215 | 6.4 | 14.5 | 0.00 | 0.00 | 0.00 | 76 | 1015.4 |
| 20260905150104 | 25 | 211 | 4.8 | 17.7 | 0.00 | 0.00 | 0.00 | 79 | 1015.3 |
| 20260905144550 | 25 | 231 | 6.4 | 19.3 | 0.00 | 0.00 | 0.00 | 79 | 1015.2 |
| 20260905143056 | 24 | 221 | 6.4 | 17.7 | 0.00 | 0.00 | 0.00 | 80 | 1015.2 |
| 20260905141547 | 24 | 213 | 6.4 | 16.1 | 0.00 | 0.00 | 0.00 | 80 | 1015.0 |
| 20260905140057 | 23 | 203 | 1.6 | 14.5 | 0.00 | 0.00 | 0.00 | 83 | 1015.4 |
| 20260905134550 | 23 | 177 | 4.8 | 14.5 | 0.00 | 0.00 | 0.00 | 83 | 1015.2 |
| 20260905133048 | 22 | 192 | 8.0 | 16.1 | 0.00 | 0.00 | 0.00 | 85 | 1015.3 |
| 20260905131556 | 21 | 196 | 6.4 | 14.5 | 0.00 | 0.00 | 0.00 | 87 | 1015.8 |
| 20260905130053 | 20 | 186 | 9.7 | 16.1 | 0.00 | 0.00 | 0.00 | 89 | 1016.0 |
| 20260905124550 | 20 | 136 | 9.7 | 16.1 | 0.00 | 0.00 | 0.00 | 90 | 1016.1 |
| 20260905123048 | 20 | 147 | 3.2 | 12.9 | 0.00 | 0.00 | 0.00 | 91 | 1016.2 |
| 20260905121552 | 20 | 113 | 3.2 | 11.3 | 0.00 | 0.00 | 0.00 | 91 | 1015.9 |
| 20260905114605 | 20 | 150 | 6.4 | 14.5 | 0.00 | 0.00 | 0.00 | 90 | 1015.4 |
| 20260905113050 | 20 | 116 | 8.0 | 17.7 | 0.00 | 0.00 | 0.00 | 89 | 1015.6 |
| 20260905111620 | 20 | 128 | 9.7 | 17.7 | 0.00 | 0.00 | 0.00 | 89 | 1015.6 |
| 20260905110108 | 20 | 127 | 11.3 | 20.9 | 0.00 | 0.00 | 0.00 | 89 | 1015.9 |
| 20260905104615 | 20 | 98 | 9.7 | 22.5 | 0.00 | 0.00 | 0.00 | 88 | 1016.0 |
| 20260905103050 | 20 | 93 | 14.5 | 24.1 | 0.00 | 0.00 | 0.00 | 88 | 1016.1 |
| 20260905101551 | 20 | 67 | 9.7 | 22.5 | 0.00 | 0.00 | 0.00 | 88 | 1016.7 |
| 20260905100058 | 21 | 57 | 8.0 | 24.1 | 0.00 | 0.00 | 0.00 | 87 | 1016.3 |
| 20260905094702 | 21 | 77 | 17.7 | 29.0 | 0.00 | 0.00 | 0.00 | 85 | 1016.3 |
| 20260905093059 | 21 | 75 | 19.3 | 30.6 | 0.00 | 0.00 | 0.00 | 84 | 1016.2 |
| 20260905091556 | 21 | 78 | 24.1 | 41.8 | 0.00 | 0.00 | 0.00 | 84 | 1016.2 |
| 20260905090058 | 22 | 114 | 12.9 | 25.7 | 0.00 | 0.00 | 0.00 | 94 | 1015.7 |
| 20260905084603 | 22 | 0 | 0.0 | 0.0 | 0.00 | 0.00 | 0.00 | 92 | 1015.0 |
| 20260905083049 | 22 | 0 | 0.0 | 0.0 | 0.00 | 0.00 | 0.00 | 93 | 1014.7 |
| 20260905081603 | 22 | 0 | 0.0 | 4.8 | 0.00 | 0.00 | 0.00 | 92 | 1014.5 |
| 20260905080104 | 23 | 201 | 1.6 | 4.8 | 0.00 | 0.00 | 0.00 | 92 | 1014.2 |
| 20260905074559 | 23 | 196 | 0.0 | 3.2 | 0.00 | 0.00 | 0.00 | 90 | 1014.5 |